Theta_e
307 307 306 306 306 305 305 305 305 305 305 305 305 305 305 306 307 308 309 310 310 312 315 317 319 321 322 323 326 329 331 333 335 337 338 339 338 338 339 339 338 338 337
306 305 305 305 304 304 304 303 303 303 303 304 303 304 304 305 306 306 307 308 309 309 311 314 316 317 319 320 322 323 324 326 330 330 330 329 337 337 337 338 338 337 337
304 304 304 303 303 303 302 302 302 302 302 302 302 302 303 303 304 304 305 306 308 309 308 310 312 314 316 317 319 320 321 322 322 323 326 328 330 332 335 335 336 336 336
302 302 303 302 301 301 301 301 300 300 301 300 300 301 302 303 303 303 304 305 306 307 308 308 310 311 312 314 316 317 319 320 320 320 321 324 327 331 334 336 334 335 336
300 301 301 301 300 300 300 299 299 299 299 299 299 300 301 302 302 303 304 306 308 308 307 307 307 307 308 311 313 315 316 317 318 319 320 320 322 325 328 331 332 332 334
299 300 300 299 299 299 299 298 297 298 298 298 297 299 301 302 304 304 303 306 304 304 305 305 306 307 306 307 309 311 313 314 315 316 316 318 321 323 325 328 331 331 326
298 299 299 298 298 297 296 296 296 296 298 297 298 299 301 303 301 302 303 303 301 302 303 303 303 303 303 304 306 307 310 312 312 313 315 317 318 319 320 322 328 328 329
297 297 297 297 296 296 295 295 295 295 296 296 294 296 296 299 300 301 301 300 299 301 300 300 300 301 301 302 302 304 305 307 309 310 312 313 313 316 318 320 322 324 327
296 296 295 296 295 295 295 294 294 293 293 296 295 294 294 292 292 300 297 299 298 298 299 299 299 299 300 300 301 301 302 304 306 306 307 308 310 311 314 315 318 321 323
294 294 294 294 294 295 294 293 293 293 293 292 295 294 294 292 289 290 296 297 297 296 296 297 297 298 298 299 299 299 300 299 300 301 303 304 306 308 310 312 315 318 321
294 293 293 293 293 294 293 292 293 293 294 293 292 292 291 291 291 288 287 292 294 295 296 295 296 297 297 297 297 298 297 298 298 298 298 300 302 304 307 310 312 316 319
293 292 292 292 292 292 292 292 292 291 292 292 292 291 290 289 289 288 287 288 288 292 294 295 295 295 296 296 296 295 294 295 297 297 297 298 299 301 304 307 310 312 315
293 292 292 292 292 292 292 292 292 292 292 291 291 290 290 290 290 288 287 286 286 289 292 295 295 295 294 296 295 293 293 294 296 296 297 298 298 299 301 304 307 309 311
293 292 292 291 290 290 291 291 292 292 291 291 289 289 289 289 290 290 288 286 284 286 290 290 294 294 295 295 294 293 295 294 295 296 297 297 297 299 299 303 306 306 308
291 291 291 290 290 290 290 291 291 290 290 290 289 290 289 289 290 290 290 289 286 282 283 290 289 294 295 295 294 293 294 293 293 296 296 296 296 297 301 302 304 305 306
291 291 290 290 290 290 290 290 290 290 289 288 289 289 289 289 290 290 290 289 289 286 283 290 291 293 293 292 293 293 293 291 292 294 294 295 296 297 299 300 301 302 304
291 290 290 289 289 289 290 290 290 289 288 288 288 288 288 289 289 290 290 290 289 289 285 288 291 290 288 288 289 292 292 291 290 292 292 294 294 295 296 298 299 300 301
290 289 289 289 289 289 289 290 288 289 287 287 286 287 287 288 288 289 289 288 288 289 287 284 287 288 287 288 288 288 289 291 290 289 291 291 292 293 294 295 297 298 299
285 287 288 288 287 286 287 289 289 288 288 287 287 286 287 287 287 288 287 287 287 288 287 285 285 287 287 288 289 288 287 289 289 288 290 289 291 291 293 294 296 296 297
285 285 286 285 284 284 285 286 288 288 287 286 286 286 286 287 286 286 286 286 287 286 286 285 285 286 288 288 288 287 286 290 287 287 289 288 287 289 290 293 294 294 296
285 285 284 284 283 284 286 288 288 287 286 285 285 286 287 286 285 286 286 286 286 286 286 285 285 286 287 287 285 285 284 286 287 286 287 287 286 286 286 291 292 293 296
284 283 283 283 282 284 285 287 288 286 284 284 284 285 286 285 286 286 286 286 287 286 286 286 285 284 284 283 284 282 283 284 284 287 285 287 286 285 285 286 292 292 294
284 282 282 283 282 283 283 285 286 285 284 284 283 283 284 285 285 286 286 285 285 286 285 284 283 283 282 283 282 282 283 282 284 285 285 285 286 285 285 285 291 291 291
282 281 282 282 282 282 282 284 285 285 283 282 282 282 283 284 285 285 284 284 284 284 283 284 283 283 283 282 282 282 281 282 284 284 285 283 285 285 286 285 287 290 291
283 283 283 282 280 282 282 283 285 284 283 282 281 282 282 283 284 285 284 282 282 283 283 282 281 281 281 281 281 281 283 281 284 283 285 286 284 284 285 284 283 286 287
283 283 282 283 280 282 281 283 285 284 283 282 281 281 280 282 283 284 283 281 281 282 281 281 281 280 279 280 279 279 280 280 283 283 284 284 284 283 284 284 283 282 282
Wind_Speed
3 3 3 4 4 4 5 5 5 5 6 6 7 7 8 9 9 7 6 10 13 17 18 19 20 21 22 23 24 24 24 25 22 22 25 28 30 30 30 29 29 29 29
3 3 3 3 3 4 4 4 5 6 6 6 7 8 9 9 10 10 8 9 12 15 16 18 18 19 20 22 23 24 25 26 24 23 24 20 29 32 31 31 31 31 30
4 3 2 3 3 3 5 5 5 5 5 6 8 8 8 9 9 10 9 8 9 9 12 15 15 17 18 19 21 23 24 25 26 26 25 25 22 22 37 36 33 34 35
4 3 2 2 3 3 4 4 5 5 5 6 7 7 7 8 8 8 7 6 6 7 9 11 15 15 16 17 18 19 21 22 24 25 25 24 24 21 25 30 31 35 36
4 3 2 2 3 3 3 4 4 5 6 6 7 8 7 6 5 4 5 6 6 7 6 11 12 10 15 16 18 19 20 21 23 24 23 24 24 24 23 24 27 30 33
4 2 1 1 2 2 3 4 6 5 6 6 9 6 5 4 3 3 6 5 7 7 8 10 9 8 14 17 19 20 23 23 24 24 24 25 23 23 21 23 25 26 24
4 2 1 1 2 3 4 5 5 6 4 7 5 3 1 2 4 5 5 4 8 8 8 9 8 8 10 18 19 22 24 24 24 25 26 24 23 24 24 24 24 21 22
4 2 0 1 2 2 3 4 5 5 3 5 5 4 3 2 3 2 6 4 10 7 11 11 12 13 11 10 13 20 22 24 24 25 25 24 25 24 24 24 25 24 22
4 2 1 0 1 2 2 3 4 5 4 2 5 3 2 2 7 1 5 5 6 10 9 11 12 13 13 12 13 15 21 23 24 25 25 25 25 25 25 25 26 23 24
4 3 2 1 1 1 2 2 2 3 3 3 0 3 2 2 3 6 3 5 8 11 13 10 12 11 12 11 15 15 19 24 26 28 28 28 26 25 25 23 23 27 23
4 3 2 2 2 1 2 2 2 2 1 2 2 2 3 2 3 3 7 7 9 7 7 11 10 10 12 12 10 11 24 26 27 28 30 29 28 28 26 25 25 25 27
4 4 4 3 3 2 1 1 1 1 2 1 2 2 2 2 2 3 5 10 10 7 11 7 8 9 10 11 13 18 24 27 28 28 28 28 27 27 28 27 25 25 25
5 5 5 4 3 2 1 0 1 1 1 1 1 1 2 3 3 4 6 7 6 7 4 6 6 7 10 10 12 17 22 24 27 29 29 29 28 26 26 26 26 26 26
5 6 5 4 4 2 2 2 2 1 1 2 3 3 3 3 4 4 4 6 7 3 5 10 5 6 9 10 13 18 15 21 27 30 28 26 26 25 24 25 23 25 25
6 6 6 5 4 4 3 2 0 1 2 3 3 3 3 4 4 5 5 5 4 5 6 4 6 9 10 10 13 15 16 20 28 29 27 25 23 22 23 22 22 23 24
9 8 7 6 5 4 4 3 1 2 2 2 3 4 4 3 5 5 5 5 6 7 6 6 9 11 11 11 13 15 16 19 22 26 27 23 22 23 23 22 22 23 23
9 8 7 6 5 5 4 3 2 2 2 3 3 4 5 4 4 5 5 6 6 7 9 9 7 9 11 12 11 11 11 11 11 19 23 22 20 20 22 23 23 23 23
8 8 8 6 5 5 5 4 3 2 1 2 3 4 4 3 5 5 5 7 6 8 8 14 10 9 9 10 9 11 9 8 9 14 21 21 19 20 22 23 24 23 22
6 7 8 7 5 4 4 4 4 3 2 1 3 4 5 5 5 5 6 6 6 6 7 7 9 7 6 7 9 6 7 8 6 14 15 19 21 22 24 25 26 25 22
7 6 6 5 5 4 5 4 3 3 2 1 3 4 4 5 6 7 6 7 6 6 6 6 7 8 8 6 5 10 11 8 6 7 10 12 18 20 25 26 27 26 23
6 6 7 6 5 4 5 6 3 2 2 3 3 4 4 4 7 7 6 7 8 7 6 6 6 7 7 8 9 7 8 9 1 5 7 8 8 10 14 20 23 30 28
8 7 7 7 6 5 8 7 4 3 3 3 2 3 4 4 5 8 9 11 9 5 4 4 4 7 9 9 7 8 7 5 4 4 6 7 8 10 10 13 30 32 33
9 9 8 7 7 7 9 8 4 3 3 3 3 3 3 3 5 6 8 8 5 7 6 6 8 8 9 7 9 10 8 5 3 5 4 5 7 9 9 12 30 31 33
11 9 9 8 7 6 11 11 8 4 3 3 3 3 4 4 4 7 6 6 5 4 6 5 6 8 8 9 8 8 9 6 3 3 3 4 6 7 8 10 28 31 31
10 9 6 9 9 7 13 13 10 6 5 4 4 4 4 4 6 8 5 6 6 4 5 6 7 7 8 9 9 7 2 4 1 2 4 1 3 4 7 9 11 26 30
9 7 8 8 9 7 13 14 11 5 5 4 4 4 6 6 5 6 4 5 5 6 7 7 4 4 5 6 9 6 5 4 2 1 4 3 2 3 2 6 9 11 11
Wind_Direction
78 59 44 28 18 1 1 348 342 336 335 331 325 319 312 306 302 298 300 305 303 305 306 304 299 296 294 292 294 293 298 297 302 283 264 255 241 233 230 226 224 224 221
83 63 51 33 17 0 351 335 333 330 329 327 321 322 312 306 303 300 299 303 306 307 312 312 310 307 304 299 298 297 297 292 296 303 304 318 264 242 234 229 225 226 223
87 72 51 24 7 346 325 325 327 326 323 325 314 312 306 304 300 302 305 305 308 306 319 319 324 321 318 315 310 305 301 298 297 297 297 302 295 290 244 241 230 226 225
90 83 57 30 356 336 336 333 335 325 325 320 316 312 308 303 306 309 309 317 322 321 322 341 334 335 335 328 319 314 308 305 300 299 296 295 297 294 270 247 249 245 230
94 80 60 36 347 342 345 340 331 330 322 325 318 310 315 316 331 340 352 355 13 8 359 356 350 327 345 341 336 329 325 319 315 311 311 297 288 288 285 275 262 263 255
97 112 107 57 348 341 350 346 334 334 323 328 313 308 327 355 30 14 357 32 33 13 1 352 341 344 340 338 334 331 328 323 323 326 317 314 308 292 304 291 280 274 308
121 117 101 29 360 6 3 348 334 333 332 345 309 325 7 95 27 354 41 20 10 356 359 349 337 330 324 323 322 327 324 326 323 321 323 316 321 315 303 293 294 285 264
122 148 164 28 10 348 1 355 349 336 338 3 345 304 349 163 4 42 3 24 356 360 347 346 340 337 332 328 331 328 333 331 322 324 326 329 325 318 309 308 291 296 278
150 162 153 20 23 339 351 346 348 353 336 12 10 353 306 353 325 299 342 341 353 349 342 338 338 334 332 330 328 331 337 331 329 326 323 319 318 314 313 306 306 292 287
167 167 145 99 31 7 356 346 347 328 329 5 33 32 1 329 345 313 311 335 352 336 339 337 332 332 335 333 331 330 348 337 331 327 323 318 313 311 309 305 301 295 284
168 151 134 114 72 42 33 353 311 335 345 325 352 7 359 323 266 262 303 322 327 346 327 331 330 331 338 332 330 339 337 329 326 322 316 312 313 309 303 301 299 301 298
163 163 148 124 115 101 63 3 351 355 335 341 345 340 325 319 312 298 303 319 315 318 323 328 327 336 338 339 336 331 326 322 318 317 313 307 302 304 303 300 297 297 298
175 172 163 151 121 114 167 253 240 230 245 272 284 283 286 280 300 297 297 299 294 317 306 304 338 341 338 330 321 325 318 319 318 317 313 307 302 298 298 298 296 296 293
159 161 156 128 126 198 186 199 229 282 300 298 292 286 286 286 282 280 280 304 309 264 291 317 320 337 326 324 315 317 318 315 321 319 316 312 307 303 300 296 301 301 298
150 167 151 141 152 195 180 173 186 255 266 269 266 268 269 281 287 282 280 282 293 313 315 332 337 322 326 323 319 322 321 323 321 321 321 313 315 309 305 310 306 301 300
159 165 152 145 158 174 174 181 198 236 257 275 271 268 273 270 270 276 270 265 259 263 270 305 311 319 327 316 315 321 325 320 316 320 326 319 320 325 323 320 314 311 308
163 160 152 147 158 180 171 175 187 222 278 288 294 290 281 279 275 274 271 267 270 270 276 294 307 314 313 315 314 317 321 311 317 331 333 337 335 334 334 331 327 320 310
164 155 150 154 167 183 179 172 171 181 247 311 308 280 284 297 290 287 290 291 289 289 287 295 309 315 311 315 299 302 310 314 322 335 345 343 347 351 350 346 335 331 317
156 163 155 161 170 194 196 192 178 182 193 278 277 288 298 302 301 307 303 297 295 292 286 288 299 306 302 307 314 298 323 328 338 331 345 346 350 358 358 350 351 341 326
164 166 154 153 157 208 218 212 209 191 198 215 286 285 287 298 304 308 304 298 295 291 282 279 287 299 301 306 321 330 332 338 340 340 355 1 350 350 356 356 3 359 355
170 165 158 170 167 204 223 209 215 192 194 199 231 259 276 302 293 298 308 311 305 294 288 284 287 294 309 329 337 337 315 315 329 358 345 10 356 360 2 4 11 14 12
168 172 179 181 192 206 223 239 247 206 192 216 229 266 284 288 312 310 323 316 306 319 304 304 305 310 317 326 329 323 317 329 343 43 342 14 4 11 5 4 20 22 31
175 190 191 186 209 212 208 222 257 243 226 219 254 275 290 293 303 325 331 328 323 338 357 324 312 319 314 332 321 314 319 314 306 332 335 16 3 25 12 8 17 31 30
186 190 195 195 205 215 209 205 206 198 224 223 245 263 279 307 326 324 335 337 335 336 347 332 311 311 313 317 307 300 293 292 265 278 325 48 2 35 13 19 20 27 35
186 193 192 192 201 211 210 205 199 189 197 213 219 232 261 282 314 331 333 337 336 323 330 332 334 333 331 325 332 309 311 309 281 345 357 9 18 5 41 20 10 24 31
192 185 195 201 198 209 203 207 202 202 198 206 210 220 235 267 306 319 326 333 328 334 331 336 333 338 350 352 0 5 334 310 318 244 29 317 346 347 59 27 20 15 22